Miscellaneous Local Product
Issued by NWS North Platte, NE

Home | Current Version | Previous Version | Text Only | Print | Product List | Glossary On
Versions: 1 2 3 4 5 6 7 8 9 10 11 12 13 14 15 16 17 18 19 20 21 22 23 24 25 26 27 28 29 30 31 32 33 34 35 36 37 38 39 40 41 42 43 44 45 46 47 48 49 50
000
AXUS43 KLBF 271610
MISLBF


WESTERN AND NORTH CENTRAL NEBRASKA HOURLY WEATHER ROUNDUP
NATIONAL WEATHER SERVICE NORTH PLATTE NE
1000 AM CST THU NOV 27 2014

***STATIONS NOT REPORTING VARIABLES SUCH AS SKY/WEATHER OR
PRESSURE ARE PROVIDED BY THE NEBRASKA DEPARTMENT OF
ROADS...RAWS...AND APRS NETWORKS...AND ARE NOT UNDER
NATIONAL WEATHER SERVICE QUALITY CONTROL***

...OBSERVATIONS IN AND NEAR THE EASTERN PANHANDLE OF NEBRASKA...

CITY           SKY/WX    TMP DP  RH WIND       PRES   REMARKS
PINE RIDGE     PTSUNNY   31  23  72 S9        30.09F WCI  23
CHADRON        MOSUNNY  N/A N/A N/A CALM      30.10F
ALLIANCE       MOSUNNY   27  24  89 S8        30.12F WCI  19
SIDNEY         MOSUNNY   35  28  75 SW12      30.16S WCI  27
WHITECLAY        N/A     29  21  74 S14         N/A  WCI  18
CRESCENT LAKE    N/A     27  24  88 S5          N/A  WCI  22
LISCO            N/A     26  19  75 CALM        N/A
BIG SPRINGS      N/A     28  25  88 CALM        N/A
$$

...OBSERVATIONS IN NORTH CENTRAL NEBRASKA...

CITY           SKY/WX    TMP DP  RH WIND       PRES   REMARKS
VALENTINE      PTSUNNY   27  18  69 S16       30.20F WCI  15
THEDFORD       PTSUNNY   28  20  72 S14       30.22F WCI  17
AINSWORTH      PTSUNNY   23  16  75 SE17      30.23F WCI   9
O`NEILL        CLOUDY    20  11  68 SE12      30.35F WCI   9
ORD            CLOUDY    22  13  68 SE10      30.35F WCI  11
BROKEN BOW     MOSUNNY   26  16  65 S21G28    30.29F WCI  12
BROWNLEE         N/A     24  18  80 S16         N/A  WCI  10
SPRINGVIEW       N/A     23  15  71 SE12        N/A  WCI  12
BREWSTER         N/A     29  19  66 S15         N/A  WCI  17
SARGENT          N/A     23  15  73 SE12        N/A  WCI  12
COMSTOCK         N/A     30  18  60 S17         N/A  WCI  18
CHAMBERS         N/A     23   9  55 E10         N/A  WCI  12
$$

...OBSERVATIONS IN SOUTHWEST NEBRASKA AND FAR NORTHEAST COLORADO...

CITY           SKY/WX    TMP DP  RH WIND       PRES   REMARKS
WRAY           FAIR      35  30  80 SW6       30.20F WCI  30
HOLYOKE        FAIR      34  30  86 SW6       30.18F WCI  29
IMPERIAL       MOSUNNY   29  23  78 E5        30.22F WCI  24
OGALLALA       SUNNY    N/A N/A N/A CALM      30.21S
NORTH PLATTE   MOSUNNY   28  19  69 S9        30.25F WCI  19
MCCOOK         SUNNY     32  19  58 S10       30.29S WCI  24
LEXINGTON      MOSUNNY   28  20  72 SE15      30.32F WCI  17
PAXTON           N/A     28  26  92 S7          N/A  WCI  21
BRADY            N/A     26  19  75 CALM        N/A
GOTHENBURG       N/A     28  20  72 SE10        N/A  WCI  19
CALLAWAY         N/A     25  20  81 S21         N/A  WCI  11
$$

...NORTH PLATTE AREA...

CITY           SKY/WX    TMP DP  RH WIND       PRES   REMARKS
AIRPORT        MOSUNNY   28  19  69 S9        30.25F WCI  19
DOWNTOWN         N/A     27  19  71 S7          N/A  WCI  20
$$

...SOME WEATHER OBSERVATIONS FROM AROUND THE REGION...

CITY           SKY/WX    TMP DP  RH WIND       PRES   REMARKS
DENVER         CLOUDY    50  16  25 S6        30.22R
LARAMIE        PTSUNNY   40  18  41 SW18G29   30.25R WCI  31
CHEYENNE       PTSUNNY   47  18  31 W23G36    30.18R
SCOTTSBLUFF    CLOUDY    22  20  92 E6        30.14F WCI  14
RAPID CITY     FOG       20  19  96 SE9       30.08F VSB 1   WCI   9
PIERRE         CLOUDY    14   8  77 SE18      30.29F WCI  -3
WINNER         PTSUNNY   21  10  62 SE20      30.28F WCI   6
SIOUX FALLS    PTSUNNY    4  -6  63 CALM      30.50R
OMAHA          CLOUDY    17   4  56 CALM      30.56R
GRAND ISLAND   SUNNY     23  10  57 SE13      30.43F WCI  11
KANSAS CITY    CLOUDY    26  19  74 CALM      30.53R
WICHITA        MOSUNNY   31  20  63 S3        30.52R
HAYS           SUNNY     34  16  47 S15       30.41F WCI  24
LIBERAL        SUNNY     36  21  55 S20       30.40F WCI  25
GOODLAND       SUNNY     38  26  62 SW10      30.24S WCI  31
$$



USA.gov is the U.S. government's official web portal to all federal, state and local government web resources and services.